Regional Weather Roundup
Issued by NWS

Home | Current Version | Previous Version | Graphics & Text | Print | Product List | Glossary On
Versions: 1 2 3 4 5 6 7 8 9 10 11 12 13 14 15 16 17 18 19 20 21 22 23 24 25 26 27 28 29 30 31 32 33 34 35 36 37 38 39 40 41 42 43 44 45 46 47 48 49 50
518
ASUS45 KBOU 301407
RWRCO

WEATHER ROUNDUP FOR COLORADO
NATIONAL WEATHER SERVICE DENVER/BOULDER CO
800 AM MDT SAT JUL 30 2016

NOTE: "FAIR" INDICATES FEW OR NO CLOUDS BELOW 12000 FEET WITH NO
SIGNIFICANT WEATHER AND/OR OBSTRUCTIONS TO VISIBILITY.

COZ001>005-013-030-031-301500-
...NORTHWEST COLORADO...

CITY           SKY/WX    TMP DP  RH WIND       PRES   REMARKS
CRAIG          FAIR      54  41  61 CALM      30.18R
HAYDEN         FAIR      59  36  41 E12       30.19R
MEEKER         FAIR      61  39  44 CALM      30.19R
MOUNT WERNER   NOT AVBL
STEAMBOAT SPGS FAIR      52  39  60 CALM      30.22R
WALDEN         FAIR      50  32  50 CALM      30.30R
$$

COZ006>008-011-301500-
...WEST CENTRAL VALLEYS...

CITY           SKY/WX    TMP DP  RH WIND       PRES   REMARKS
GRAND JUNCTION FAIR      74  39  28 E3        30.06R
MONTROSE       FAIR      72  41  32 E3        30.15R
EAGLE          SUNNY     59  39  47 CALM      30.24R
RIFLE          FAIR      63  40  42 CALM      30.13R
DELTA          NOT AVBL
NUCLA          NOT AVBL
$$

COZ017>023-064>068-301500-
...SOUTHWEST COLORADO...

CITY           SKY/WX    TMP DP  RH WIND       PRES   REMARKS
DURANGO        FAIR      64  44  48 E6        30.25R
CORTEZ         FAIR      68  46  45 NE6       30.16R
PAGOSA SPRINGS FAIR      63  40  43 NE3       30.34F
TELLURIDE      PTSUNNY   62  39  44 CALM      30.42R
WOLF CREEK PAS FAIR      46  36  66 SW16G26   30.65R
$$

COZ009-010-012-014-032>034-037-058>063-301500-
...CENTRAL COLORADO...

CITY           SKY/WX    TMP DP  RH WIND       PRES   REMARKS
ASPEN          FAIR      61  38  42 SE3       30.28R
BUENA VISTA    FAIR      60  47  62 CALM      30.32F
COPPER MTN     FAIR      59  27  29 W12G17    30.60R
BERTHOUD PASS  FAIR      46  32  57 NW26G32   30.59R
COTTONWOOD PAS FAIR      59  45  58 CALM      30.45S
GUNNISON       FAIR      54  37  54 CALM      30.36R
KREMMLING      FAIR      50  36  57 CALM      30.29R
LEADVILLE      FAIR      51  44  77 N3        30.45R
MONARCH PASS   FAIR      50  32  50 MISG      30.71R
SALIDA         FAIR      61  52  72 CALM      30.37S
SUNLIGHT       FAIR      63  32  31 MISG      30.54R
WILKERSON PASS FAIR      50  39  66 SW7       30.56S
$$

COZ069>075-301500-
...SAN LUIS VALLEY/SANGRE DE CRISTO MOUNTAINS...

CITY           SKY/WX    TMP DP  RH WIND       PRES   REMARKS
ALAMOSA        FAIR      63  44  50 N5        30.31R
LA VETA PASS   FAIR      52  41  66 S10G18    30.46R
SAGUACHE       FAIR      61  41  48 CALM      30.35R
$$

COZ035-036-038>040-301500-
...NORTHERN COLORADO FRONT RANGE...

CITY           SKY/WX    TMP DP  RH WIND       PRES   REMARKS
DENVER INTL AP FAIR      66  59  78 NW10      30.06R
DMNS CITY PARK   N/A     68  58  69 NE6       30.05S
AURORA         MOSUNNY   69  58  65 NW8       30.07R
FRONT RANGE AP SUNNY     70  59  68 NW7       30.07R
ERIE MUNI ARPT FAIR      65  60  83 N6        30.06R
BOULDER MUN AP FAIR      64  59  82 N3        30.07R
CENTENNIAL     FAIR      72  54  53 S6        30.07F
BROOMFIELD     SUNNY     64  59  82 N7        30.08R
LONGMONT       NOT AVBL
$$

COZ041-046-047-076>085-087-088-301500-
...PIKES PEAK/PALMER DIVIDE AND SOUTHERN FOOTHILLS...

CITY           SKY/WX    TMP DP  RH WIND       PRES   REMARKS
COLO. SPRINGS  PTSUNNY   63  57  81 CALM      30.16F
A. F. ACADEMY  CLOUDY    61  58  91 S5        30.17F
SCHRIEVER AFB  NOT AVBL
ELLICOTT       NOT AVBL
FALCON         NOT AVBL
FORT CARSON    PTSUNNY   64  59  82 E2        30.13F
LIMON          FAIR      63  59  87 S8        30.10F
MONUMENT HILL  FAIR      63  54  72 MISG      30.19F
TRINIDAD       NOT AVBL
$$

COZ042>045-048>051-090-091-301500-
...NORTHEAST COLORADO...

CITY           SKY/WX    TMP DP  RH WIND       PRES   REMARKS
GREELEY ARPT   FAIR      68  61  77 CALM      30.05S
AKRON          FAIR      68  59  73 S7        30.06F
BURLINGTON     FAIR      70  60  70 SW8       30.05R
WRAY           NOT AVBL
STERLING       NOT AVBL
HOLYOKE        NOT AVBL
FORT MORGAN    NOT AVBL
$$

COZ086-089-092>099-301500-
...SOUTHEAST COLORADO...

CITY           SKY/WX    TMP DP  RH WIND       PRES   REMARKS
PUEBLO         FAIR      69  60  73 SW5       30.08F
LA JUNTA       FAIR      69  58  67 W15       30.05R
LAMAR          FAIR      73  59  61 S15G24    29.95F
SPRINGFIELD      N/A     66  57  72 W7        30.10F
$$




USA.gov is the U.S. government's official web portal to all federal, state and local government web resources and services.